[[{"header":{"parameterUnit":"m.s-1","parameterCategory":1,"la1":30.2991,"la2":30.254,"lo1":-89.0895,"lo2":-89.0444,"dy":0.0017,"dx":0.0017,"nx":28,"ny":28,"refTime":"2024-03-21T21:00:00:Z","depth":0,"parameterNumber":2,"parameterNumberName":"U-component_of_WINDS"},"data":[0,0,0,0,0,0,0,0,0,0,0,0,0,0,0,0,0,0,0,0,0,0,0,0,0,0,0,0,0,0,0,0,0,0,0,0,0,0,0,0,0,0,0,0,0,0,0,0,0,0,0,0,0,0,0,0,0,0,-6.5221,-6.5221,0,-6.5286,-6.5287,-6.5288,-6.5216,-6.5213,-6.521,-6.5208,-6.5271,-6.5275,-6.5279,0,0,0,0,0,0,0,0,0,0,0,0,0,-6.503,-6.5034,-6.5221,-6.5221,-6.5222,-6.5286,-6.5287,-6.5288,-6.5216,-6.5213,-6.5209,-6.5206,-6.527,-6.5275,-6.528,0,0,0,0,0,0,0,0,0,0,0,0,0,-6.5106,-6.5036,-6.522,-6.5194,-6.5193,-6.5286,-6.5287,-6.5288,-6.5217,-6.5213,-6.5209,-6.5205,-6.5268,-6.5274,-6.528,-6.5402,0,0,-6.53,-6.5303,0,0,0,0,0,0,0,0,-6.5102,-6.5113,-6.5197,-6.5196,-6.5194,-6.5239,-6.5243,-6.5326,-6.5218,-6.5207,-6.5207,-6.5203,-6.5263,-6.527,-6.5291,-6.5405,-6.5407,-6.53,-6.5304,-6.5307,-6.5309,0,0,0,0,0,0,0,-6.5097,-6.511,-6.5246,-6.5199,-6.5197,-6.5178,-6.5184,-6.5258,-6.5257,-6.5208,-6.5203,-6.5212,-6.5262,-6.5285,-6.5292,-6.5408,-6.53,-6.5306,-6.531,-6.5312,-6.5623,-6.5627,0,0,0,0,0,0,-6.5095,-6.5106,-6.5244,-6.5248,-6.5137,-6.5185,-6.5192,-6.5228,-6.5256,-6.5257,-6.5215,-6.5208,-6.5276,-6.5285,-6.5294,-6.5435,-6.5307,-6.5313,-6.5317,-6.5619,-6.5624,-6.5629,0,0,0,0,0,0,-6.5091,-6.5108,-6.5242,-6.5176,-6.5191,-6.5193,-6.5234,-6.5232,-6.5255,-6.5262,-6.5261,-6.5239,-6.5273,-6.5285,-6.5375,-6.5437,-6.5316,-6.5322,-6.5613,-6.562,-6.5626,-6.5721,0,0,0,0,0,0,-6.5086,-6.5107,-6.5154,-6.5178,-6.5195,-6.5323,-6.5238,-6.5236,-6.5267,-6.5258,-6.5284,-6.5285,-6.5271,-6.5366,-6.5382,-6.5443,-6.5327,-6.5608,-6.5616,-6.5624,-6.5712,-6.573,-6.5745,0,0,0,0,0,-6.5079,-6.5177,-6.5156,-6.5173,-6.5254,-6.5327,-6.5337,-6.532,-6.5272,-6.5318,-6.5323,-6.5284,-6.5429,-6.5376,-6.5393,-6.5457,-6.5604,-6.5614,-6.5624,-6.5705,-6.5727,-6.5745,0,0,0,0,0,0,-6.5159,-6.518,-6.5157,-6.5266,-6.5295,-6.5314,-6.5372,-6.5344,-6.5386,-6.5376,-6.5353,-6.5359,-6.5455,-6.5466,-6.5407,-6.5575,-6.5508,-6.5522,-6.5564,-6.5585,-6.5601,-6.5595,-6.5332,0,0,0,0,0,-6.519,-6.5248,-6.5263,-6.5357,-6.5373,-6.5371,-6.5402,-6.5387,-6.5415,-6.5427,-6.5438,-6.5467,-6.5518,-6.5553,-6.5601,-6.5715,-6.5718,-6.5768,-6.5784,-6.5798,-6.5809,-6.5868,-6.5889,-6.5662,-6.5661,-6.5661,0,0,-6.5252,-6.5271,-6.5309,-6.5374,-6.5395,-6.5454,-6.5381,-6.5448,-6.5491,-6.5437,-6.5522,-6.5532,-6.5562,-6.5665,-6.571,-6.5676,-6.5873,-6.5811,-6.5821,-6.5825,-6.588,-6.5902,-6.5921,-6.5668,-6.5667,-6.5666,0,0,-6.5397,-6.5418,-6.5498,-6.5521,-6.5554,-6.5552,-6.5572,-6.5596,-6.56,-6.5686,-6.5646,-6.5698,-6.5788,-6.5811,-6.5834,-6.5989,-6.5954,-6.6006,-6.609,-6.6148,-6.6166,-6.6182,-6.6234,-6.6254,-6.6018,-6.6018,-6.6018,0,-6.547,-6.5559,-6.5543,-6.5612,-6.5641,-6.5596,-6.5676,-6.5699,-6.5746,-6.5766,-6.5729,-6.5841,-6.5858,-6.5964,-6.6002,-6.6024,-6.6044,-6.6001,-6.6165,-6.6181,-6.6195,-6.6245,-6.6265,-6.6024,-6.6023,-6.6022,-6.6022,0,-6.5646,-6.5709,-6.577,-6.5817,-6.5853,-6.5928,-6.5921,-6.596,-6.5942,-6.5944,-6.6031,-6.6051,-6.6102,-6.6127,-6.611,-6.6231,-6.6208,-6.6169,-6.61,-6.6223,-6.6269,-6.6288,-6.6032,-6.603,-6.6028,-6.6027,0,0,-6.5839,-6.5878,-6.59,-6.592,-6.5955,-6.6002,-6.6075,-6.6126,-6.6158,-6.6193,-6.6251,-6.633,-6.6293,-6.632,-6.6306,-6.6357,-6.6476,-6.6311,-6.6311,-6.6338,-6.6607,-6.6633,-6.6656,-6.6455,-6.6458,-6.6461,-6.6603,0,-6.5982,-6.6107,-6.6095,-6.6214,-6.6271,-6.623,-6.6293,-6.6321,-6.6325,-6.6372,-6.6376,-6.6431,-6.6381,-6.6396,-6.6446,-6.6451,-6.6528,-6.6441,-6.6506,-6.6508,-6.6496,-6.6681,-6.6709,-6.6842,-6.6621,-6.6624,-6.6627,0,-6.6164,-6.6206,-6.6331,-6.6356,-6.6379,-6.6436,-6.6481,-6.6528,-6.6558,-6.6557,-6.6589,-6.6566,-6.6637,-6.657,-6.6667,-6.6608,-6.6634,-6.6641,-6.6646,-6.6648,-6.6572,-6.6684,-6.6884,-6.6903,-6.6655,-6.6653,-6.6651,0,-6.6288,-6.6376,-6.6462,-6.6481,-6.6514,-6.6554,-6.6569,-6.6595,-6.6627,-6.6667,-6.6686,-6.6734,-6.6759,-6.6796,-6.6786,-6.6739,-6.6885,-6.6818,-6.6884,-6.6884,-6.6913,-6.6911,-6.7116,-6.6937,-6.6937,-6.6936,-6.6936,0,-6.6446,-6.6523,-6.6518,-6.657,-6.6655,-6.6641,-6.6725,-6.6735,-6.6759,-6.6811,-6.6781,-6.683,-6.6816,-6.6865,-6.6859,-6.6939,-6.6951,-6.6951,-6.6947,-6.6951,-6.6951,-6.6965,-6.6955,-6.6941,-6.694,-6.6939,-6.6938,0,-6.6598,-6.6597,-6.6687,-6.6712,-6.672,-6.6781,-6.6801,-6.6849,-6.6852,-6.6919,-6.6934,-6.6937,-6.6993,-6.6989,-6.7052,-6.7047,-6.7145,-6.7132,-6.7135,-6.7131,-6.7196,-6.7189,-6.7415,-6.7443,-6.7249,-6.7251,-6.7252,0,-6.6697,-6.6755,-6.6786,-6.6819,-6.6838,-6.6892,-6.6924,-6.6913,-6.6947,-6.6986,-6.703,-6.7084,-6.7125,-6.7217,-6.7224,-6.7272,-6.7258,-6.7335,-6.7265,-6.7267,-6.7256,-6.7251,-6.7255,-6.7347,-6.7349,-6.7351,-6.7352,0,-6.6871,-6.6869,-6.6916,-6.6965,-6.7004,-6.7041,-6.7075,-6.7104,-6.7096,-6.7136,-6.7194,-6.7227,-6.7291,-6.7344,-6.739,-6.7404,-6.7377,-6.7375,-6.7392,-6.7395,-6.7393,-6.7392,-6.7168,-6.7369,-6.7367,-6.7366,-6.7365,-6.7364,-6.6997,-6.7047,-6.7076,-6.713,-6.7155,-6.7187,-6.7234,-6.7243,-6.7291,-6.7343,-6.7334,-6.7398,-6.7427,-6.7485,-6.7505,-6.7554,-6.7526,-6.7552,-6.7558,-6.7563,-6.7569,-6.7389,-6.7563,-6.7562,-6.7562,-6.7561,-6.7561,0,-6.7168,-6.7185,-6.7235,-6.7284,-6.7326,-6.7299,-6.7335,-6.7372,-6.7429,-6.7459,-6.7501,-6.7567,-6.7618,-6.7631,-6.768,-6.7717,-6.7705,-6.773,-6.7725,-6.7728,-6.7593,-6.7571,-6.7738,-6.7738,-6.7738,-6.7738,-6.7738,-6.7738,-6.7261,-6.7343,-6.7344,-6.7437,-6.7454,-6.7517,-6.7539,-6.7569,-6.7592,-6.7667,-6.771,-6.7719,-6.7741,-6.7791,-6.7837,-6.7839,-6.7857,-6.7886,-6.7883,-6.7756,-6.7738,-6.7721,-6.77,-6.7891,-6.7892,-6.8014,-6.8015,-6.8016]},{"header":{"parameterUnit":"m.s-1","parameterCategory":1,"la1":30.2991,"la2":30.254,"lo1":-89.0895,"lo2":-89.0444,"dy":0.0017,"dx":0.0017,"nx":28,"ny":28,"refTime":"2024-03-21T21:00:00:Z","depth":0,"parameterNumber":3,"parameterNumberName":"V-component_of_WINDS"},"data":[0,0,0,0,0,0,0,0,0,0,0,0,0,0,0,0,0,0,0,0,0,0,0,0,0,0,0,0,0,0,0,0,0,0,0,0,0,0,0,0,0,0,0,0,0,0,0,0,0,0,0,0,0,0,0,0,0,0,4.3305,4.3306,0,4.3417,4.3418,4.342,4.3397,4.3395,4.3393,4.3391,4.3503,4.3508,4.3513,0,0,0,0,0,0,0,0,0,0,0,0,0,4.3069,4.3074,4.3305,4.3306,4.3308,4.3417,4.3418,4.342,4.3398,4.3395,4.3393,4.339,4.3501,4.3507,4.3513,0,0,0,0,0,0,0,0,0,0,0,0,0,4.3175,4.3075,4.3304,4.331,4.3311,4.3417,4.3418,4.342,4.3398,4.3395,4.3392,4.3389,4.3499,4.3507,4.3514,4.362,0,0,4.3536,4.3539,0,0,0,0,0,0,0,0,4.3169,4.3184,4.3307,4.3309,4.3311,4.339,4.3376,4.3487,4.3399,4.3365,4.3391,4.3388,4.3468,4.3477,4.3505,4.3625,4.363,4.3537,4.3541,4.3544,4.3546,0,0,0,0,0,0,0,4.3162,4.3179,4.3349,4.3309,4.3312,4.3306,4.3317,4.3397,4.3432,4.3368,4.3366,4.338,4.3468,4.3498,4.3508,4.3632,4.3537,4.3543,4.3548,4.355,4.3847,4.385,0,0,0,0,0,0,4.3153,4.3173,4.3345,4.3352,4.3232,4.3313,4.3326,4.3368,4.3431,4.3438,4.3383,4.3379,4.3487,4.3499,4.3511,4.3641,4.3544,4.3551,4.3555,4.3843,4.3848,4.3851,0,0,0,0,0,0,4.3148,4.3169,4.3341,4.3263,4.3284,4.332,4.3367,4.3372,4.3402,4.3442,4.3448,4.3407,4.3485,4.3501,4.3594,4.3645,4.3554,4.3561,4.3839,4.3845,4.3849,4.3901,0,0,0,0,0,0,4.3142,4.3167,4.3208,4.3264,4.3288,4.3422,4.3371,4.3376,4.3415,4.3411,4.3467,4.3473,4.3484,4.3583,4.3601,4.3653,4.3567,4.3835,4.3842,4.3848,4.3895,4.3908,4.3918,0,0,0,0,0,4.3133,4.3217,4.321,4.3231,4.334,4.3425,4.3439,4.3451,4.3419,4.346,4.3487,4.3471,4.3636,4.3593,4.3613,4.3668,4.3832,4.384,4.3847,4.389,4.3905,4.3918,0,0,0,0,0,0,4.3165,4.3224,4.3217,4.3322,4.3369,4.3421,4.3474,4.3466,4.3522,4.3516,4.3527,4.354,4.3635,4.3661,4.3611,4.3775,4.3729,4.3742,4.3755,4.377,4.3781,4.3773,4.3573,0,0,0,0,0,4.3184,4.3249,4.3297,4.3385,4.3409,4.3437,4.3475,4.348,4.3528,4.3548,4.3581,4.3628,4.3691,4.3731,4.3791,4.3899,4.3911,4.3947,4.3958,4.3968,4.3978,4.4039,4.4055,4.3877,4.3877,4.3877,0,0,4.3224,4.3265,4.3305,4.3392,4.3429,4.3496,4.3454,4.3525,4.3575,4.3558,4.3649,4.3675,4.3728,4.383,4.3876,4.3854,4.403,4.3978,4.3985,4.399,4.4048,4.4065,4.408,4.3882,4.3881,4.3881,0,0,4.3332,4.3369,4.3447,4.3485,4.3543,4.3561,4.358,4.3635,4.3652,4.3743,4.3733,4.3791,4.3898,4.3937,4.3971,4.4096,4.4085,4.4115,4.4176,4.4235,4.4249,4.4261,4.4307,4.4323,4.4126,4.4126,4.4126,0,4.3374,4.3475,4.3487,4.3561,4.36,4.359,4.3669,4.3705,4.3779,4.3806,4.3781,4.3917,4.3952,4.4063,4.4094,4.4121,4.4143,4.4109,4.4246,4.4258,4.427,4.4314,4.4331,4.4129,4.4129,4.4128,4.4128,0,4.3525,4.3595,4.3651,4.3724,4.3769,4.3845,4.3869,4.3913,4.3915,4.3937,4.4031,4.4073,4.4142,4.4168,4.417,4.428,4.4265,4.4243,4.4197,4.4291,4.4332,4.4349,4.4134,4.4133,4.4132,4.4131,0,0,4.3654,4.3735,4.3756,4.379,4.3853,4.3907,4.3983,4.4052,4.409,4.4141,4.4206,4.4298,4.4278,4.4317,4.4323,4.4375,4.4473,4.4346,4.4348,4.4369,4.4599,4.4616,4.4635,4.4466,4.4469,4.4472,4.4595,0,4.3768,4.3903,4.3918,4.4038,4.4104,4.4096,4.4162,4.4208,4.4231,4.4289,4.4314,4.438,4.4348,4.4372,4.4423,4.445,4.4519,4.4441,4.4526,4.4529,4.4513,4.4657,4.4674,4.4789,4.4611,4.4614,4.4616,0,4.3919,4.3977,4.4105,4.4161,4.4189,4.4248,4.4314,4.437,4.4422,4.4435,4.448,4.448,4.4558,4.451,4.4618,4.4565,4.46,4.462,4.4624,4.4633,4.4578,4.467,4.4825,4.4843,4.4641,4.4639,4.4637,0,4.4002,4.4112,4.4203,4.4232,4.43,4.4342,4.4372,4.4421,4.4463,4.452,4.4547,4.4611,4.4647,4.4697,4.4715,4.4678,4.4824,4.4776,4.4837,4.4837,4.4868,4.4866,4.5032,4.489,4.4889,4.4889,4.4889,0,4.4129,4.4207,4.4242,4.4298,4.4386,4.4401,4.4488,4.4516,4.456,4.4622,4.4618,4.4676,4.4695,4.4756,4.4771,4.4859,4.4875,4.4888,4.4891,4.4889,4.4887,4.4912,4.4905,4.4893,4.4892,4.4892,4.4891,0,4.4236,4.4262,4.4361,4.4418,4.4434,4.4497,4.4545,4.4599,4.4622,4.47,4.4719,4.4754,4.4826,4.4849,4.4934,4.4944,4.5048,4.5044,4.5031,4.5032,4.5092,4.5086,4.528,4.5307,4.5146,4.5148,4.5149,0,4.4316,4.4376,4.444,4.4482,4.4514,4.458,4.4623,4.4641,4.4686,4.4752,4.4798,4.4869,4.4928,4.5043,4.5076,4.5142,4.514,4.5203,4.5149,4.5146,4.5142,4.5139,4.5145,4.5213,4.5215,4.5216,4.5217,0,4.4454,4.4464,4.4527,4.4594,4.4646,4.47,4.4751,4.4785,4.4811,4.4861,4.4936,4.4981,4.507,4.5141,4.521,4.524,4.5234,4.5234,4.5252,4.5251,4.5242,4.5249,4.5059,4.523,4.5228,4.5227,4.5227,4.5226,4.4551,4.4605,4.4659,4.4729,4.477,4.4819,4.4874,4.4904,4.4966,4.5041,4.5048,4.5129,4.5181,4.5272,4.5306,4.5369,4.5351,4.5376,4.5383,4.5389,4.5395,4.5231,4.5382,4.5381,4.5381,4.5381,4.538,0,4.469,4.4725,4.4789,4.4863,4.4918,4.4908,4.4966,4.5012,4.5084,4.5134,4.5192,4.5278,4.5348,4.5387,4.5457,4.55,4.5499,4.5518,4.5515,4.5523,4.5406,4.5385,4.5518,4.5518,4.5518,4.5518,4.5517,4.5517,4.4769,4.4861,4.4878,4.4991,4.5025,4.5105,4.5139,4.5184,4.5224,4.5321,4.538,4.5405,4.5451,4.5525,4.5589,4.5598,4.5625,4.5646,4.5654,4.5544,4.553,4.5517,4.5497,4.5651,4.5651,4.5765,4.5766,4.5767]}]]